Time,TemperatureF,DewpointF,PressureIn,WindDirection,WindDirectionDegrees,WindSpeedMPH,WindSpeedGustMPH,Humidity,HourlyPrecipIn,Conditions,Clouds,dailyrainin,SolarRadiationWatts/m^2,SoftwareType,DateUTC
2013-04-21 00:21:00,57.0,44.0,29.92,NE,46,4.0,44.0,62,0.00,,,0.00,0.000000,,2013-04-21 07:21:00,
2013-04-21 00:31:00,57.0,44.0,29.92,NE,46,4.0,44.0,62,0.00,,,0.00,0.000000,,2013-04-21 07:31:00,
2013-04-21 00:41:00,57.0,44.0,29.92,NE,46,4.0,44.0,62,0.00,,,0.00,0.000000,,2013-04-21 07:41:00,
2013-04-21 00:52:00,57.0,44.0,29.92,NE,46,4.0,44.0,62,0.00,,,0.00,0.000000,,2013-04-21 07:52:00,
2013-04-21 01:21:00,55.0,42.0,29.93,NE,46,5.0,10.0,62,0.00,,,0.00,0.000000,,2013-04-21 08:21:00,
2013-04-21 01:32:00,55.0,42.0,29.93,NE,46,5.0,10.0,62,0.00,,,0.00,0.000000,,2013-04-21 08:32:00,
2013-04-21 01:41:00,55.0,42.0,29.93,NE,46,5.0,10.0,62,0.00,,,0.00,0.000000,,2013-04-21 08:41:00,
2013-04-21 01:52:00,55.0,42.0,29.93,NE,46,5.0,10.0,62,0.00,,,0.00,0.000000,,2013-04-21 08:52:00,
2013-04-21 02:21:00,59.0,56.0,29.93,ENE,69,8.0,17.0,91,0.00,,,0.00,0.000000,,2013-04-21 09:21:00,
2013-04-21 02:32:00,59.0,56.0,29.93,ENE,69,8.0,17.0,91,0.00,,,0.00,0.000000,,2013-04-21 09:32:00,
2013-04-21 02:42:00,59.0,56.0,29.93,ENE,69,8.0,17.0,91,0.00,,,0.00,0.000000,,2013-04-21 09:42:00,
2013-04-21 02:52:00,59.0,56.0,29.93,ENE,69,8.0,17.0,91,0.00,,,0.00,0.000000,,2013-04-21 09:52:00,
2013-04-21 03:22:00,55.0,41.0,29.91,NE,40,7.0,16.0,60,0.00,,,0.00,0.000000,,2013-04-21 10:22:00,
2013-04-21 03:32:00,55.0,41.0,29.91,NE,40,7.0,16.0,60,0.00,,,0.00,0.000000,,2013-04-21 10:32:00,
2013-04-21 03:42:00,55.0,41.0,29.91,NE,40,7.0,16.0,60,0.00,,,0.00,0.000000,,2013-04-21 10:42:00,
2013-04-21 03:52:00,55.0,41.0,29.91,NE,40,7.0,16.0,60,0.00,,,0.00,0.000000,,2013-04-21 10:52:00,
2013-04-21 04:22:00,54.0,39.0,29.92,NE,37,5.0,14.0,56,0.00,,,-99.99,0.000000,,2013-04-21 11:22:00,
2013-04-21 04:33:00,54.0,39.0,29.92,NE,37,5.0,14.0,56,0.00,,,-99.99,0.000000,,2013-04-21 11:33:00,
2013-04-21 04:42:00,54.0,39.0,29.92,NE,37,5.0,14.0,56,0.00,,,-99.99,0.000000,,2013-04-21 11:42:00,
2013-04-21 04:52:00,54.0,39.0,29.92,NE,37,5.0,14.0,56,0.00,,,-99.99,0.000000,,2013-04-21 11:52:00,
2013-04-21 05:22:00,54.0,37.0,29.91,NNE,23,7.0,10.0,53,0.00,,,0.00,0.000000,,2013-04-21 12:22:00,
2013-04-21 05:32:00,54.0,37.0,29.91,NNE,23,7.0,10.0,53,0.00,,,0.00,0.000000,,2013-04-21 12:32:00,
2013-04-21 06:21:00,53.0,38.0,29.92,NNE,21,5.0,13.0,57,0.00,,,0.00,0.000000,,2013-04-21 13:21:00,
2013-04-21 06:32:00,53.0,38.0,29.92,NNE,21,5.0,13.0,57,0.00,,,0.00,0.000000,,2013-04-21 13:32:00,
2013-04-21 08:22:00,62.0,54.0,29.96,ESE,114,3.0,10.0,74,0.00,,,-99.99,177.000000,,2013-04-21 15:22:00,
2013-04-21 08:33:00,62.0,54.0,29.96,ESE,114,3.0,10.0,74,0.00,,,-99.99,177.000000,,2013-04-21 15:33:00,
2013-04-21 08:42:00,62.0,54.0,29.96,ESE,114,3.0,10.0,74,0.00,,,-99.99,177.000000,,2013-04-21 15:42:00,
2013-04-21 08:53:00,62.0,54.0,29.96,ESE,114,3.0,10.0,74,0.00,,,-99.99,177.000000,,2013-04-21 15:53:00,
2013-04-21 09:22:00,58.0,58.0,29.97,ESE,113,4.0,6.0,100,0.00,,,0.00,238.000000,,2013-04-21 16:22:00,
2013-04-21 09:32:00,58.0,58.0,29.97,ESE,113,4.0,6.0,100,0.00,,,0.00,238.000000,,2013-04-21 16:32:00,
2013-04-21 09:42:00,58.0,58.0,29.97,ESE,113,4.0,6.0,100,0.00,,,0.00,238.000000,,2013-04-21 16:42:00,
2013-04-21 09:52:00,58.0,58.0,29.97,ESE,113,4.0,6.0,100,0.00,,,0.00,238.000000,,2013-04-21 16:52:00,
2013-04-21 10:22:00,62.0,60.0,29.99,ESE,117,3.0,6.0,93,0.00,,,0.00,361.000000,,2013-04-21 17:22:00,
2013-04-21 10:32:00,62.0,60.0,29.99,ESE,117,3.0,6.0,93,0.00,,,0.00,361.000000,,2013-04-21 17:32:00,
2013-04-21 10:42:00,62.0,60.0,29.99,ESE,117,3.0,6.0,93,0.00,,,0.00,361.000000,,2013-04-21 17:42:00,
2013-04-21 10:52:00,62.0,60.0,29.99,ESE,117,3.0,6.0,93,0.00,,,0.00,361.000000,,2013-04-21 17:52:00,
2013-04-21 11:22:00,61.0,57.0,29.99,East,97,6.0,8.0,88,0.00,,,0.00,561.000000,,2013-04-21 18:22:00,
2013-04-21 11:32:00,61.0,57.0,29.99,East,97,6.0,8.0,88,0.00,,,0.00,561.000000,,2013-04-21 18:32:00,
2013-04-21 11:42:00,61.0,57.0,29.99,East,97,6.0,8.0,88,0.00,,,0.00,561.000000,,2013-04-21 18:42:00,
2013-04-21 11:52:00,61.0,57.0,29.99,East,97,6.0,8.0,88,0.00,,,0.00,561.000000,,2013-04-21 18:52:00,
2013-04-21 12:21:00,62.0,58.0,29.98,ESE,104,6.0,9.0,86,-99.99,,,0.00,743.000000,,2013-04-21 19:21:00,
2013-04-21 12:32:00,62.0,58.0,29.98,ESE,104,6.0,9.0,86,-99.99,,,0.00,743.000000,,2013-04-21 19:32:00,
2013-04-21 12:42:00,62.0,58.0,29.98,ESE,104,6.0,9.0,86,-99.99,,,0.00,743.000000,,2013-04-21 19:42:00,
2013-04-21 12:52:00,62.0,58.0,29.98,ESE,104,6.0,9.0,86,-99.99,,,0.00,743.000000,,2013-04-21 19:52:00,
2013-04-21 13:22:00,65.0,60.0,29.97,East,95,5.0,10.0,84,-99.99,,,0.00,833.000000,,2013-04-21 20:22:00,
2013-04-21 13:31:00,65.0,60.0,29.97,East,95,5.0,10.0,84,-99.99,,,0.00,833.000000,,2013-04-21 20:31:00,
2013-04-21 13:41:00,65.0,60.0,29.97,East,95,5.0,10.0,84,-99.99,,,0.00,833.000000,,2013-04-21 20:41:00,
2013-04-21 13:51:00,65.0,60.0,29.97,East,95,5.0,10.0,84,-99.99,,,0.00,833.000000,,2013-04-21 20:51:00,
2013-04-21 14:21:00,66.0,60.0,29.96,ESE,121,4.0,9.0,82,0.00,,,0.00,963.000000,,2013-04-21 21:21:00,
2013-04-21 14:33:00,66.0,60.0,29.96,ESE,121,4.0,9.0,82,0.00,,,0.00,963.000000,,2013-04-21 21:33:00,
2013-04-21 14:43:00,66.0,60.0,29.96,ESE,121,4.0,9.0,82,0.00,,,0.00,963.000000,,2013-04-21 21:43:00,
2013-04-21 14:53:00,66.0,60.0,29.96,ESE,121,4.0,9.0,82,0.00,,,0.00,963.000000,,2013-04-21 21:53:00,
2013-04-21 15:22:00,69.0,60.0,29.95,SSE,168,4.0,7.0,74,-99.99,,,-99.99,953.000000,,2013-04-21 22:22:00,
2013-04-21 15:33:00,69.0,60.0,29.95,SSE,168,4.0,7.0,74,-99.99,,,-99.99,953.000000,,2013-04-21 22:33:00,
2013-04-21 15:43:00,69.0,60.0,29.95,SSE,168,4.0,7.0,74,-99.99,,,-99.99,953.000000,,2013-04-21 22:43:00,
2013-04-21 15:52:00,69.0,60.0,29.95,SSE,168,4.0,7.0,74,-99.99,,,-99.99,953.000000,,2013-04-21 22:52:00,
2013-04-21 16:22:00,69.0,59.0,29.93,SSW,208,5.0,9.0,70,0.00,,,0.00,827.000000,,2013-04-21 23:22:00,
2013-04-21 16:32:00,69.0,59.0,29.93,SSW,208,5.0,9.0,70,0.00,,,0.00,827.000000,,2013-04-21 23:32:00,
2013-04-21 16:42:00,69.0,59.0,29.93,SSW,208,5.0,9.0,70,0.00,,,0.00,827.000000,,2013-04-21 23:42:00,
2013-04-21 16:52:00,69.0,59.0,29.93,SSW,208,5.0,9.0,70,0.00,,,0.00,827.000000,,2013-04-21 23:52:00,
2013-04-21 17:21:00,71.0,61.0,29.92,SW,214,5.0,8.0,70,0.00,,,0.00,638.000000,,2013-04-22 00:21:00,
2013-04-21 17:32:00,71.0,61.0,29.92,SW,214,5.0,8.0,70,0.00,,,0.00,638.000000,,2013-04-22 00:32:00,
2013-04-21 17:42:00,71.0,61.0,29.92,SW,214,5.0,8.0,70,0.00,,,0.00,638.000000,,2013-04-22 00:42:00,
2013-04-21 17:51:00,71.0,61.0,29.92,SW,214,5.0,8.0,70,0.00,,,0.00,638.000000,,2013-04-22 00:51:00,
2013-04-21 18:21:00,70.0,61.0,29.93,SSW,201,3.0,8.0,73,0.00,,,0.00,421.000000,,2013-04-22 01:21:00,
2013-04-21 18:32:00,70.0,61.0,29.93,SSW,201,3.0,8.0,73,0.00,,,0.00,421.000000,,2013-04-22 01:32:00,
2013-04-21 18:41:00,70.0,61.0,29.93,SSW,201,3.0,8.0,73,0.00,,,0.00,421.000000,,2013-04-22 01:41:00,
2013-04-21 18:52:00,70.0,61.0,29.93,SSW,201,3.0,8.0,73,0.00,,,0.00,421.000000,,2013-04-22 01:52:00,
2013-04-21 19:21:00,63.0,58.0,29.93,SSE,168,2.0,6.0,85,0.00,,,0.00,156.000000,,2013-04-22 02:21:00,
2013-04-21 19:32:00,63.0,58.0,29.93,SSE,168,2.0,6.0,85,0.00,,,0.00,156.000000,,2013-04-22 02:32:00,
2013-04-21 19:42:00,63.0,58.0,29.93,SSE,168,2.0,6.0,85,0.00,,,0.00,156.000000,,2013-04-22 02:42:00,
2013-04-21 19:51:00,63.0,58.0,29.93,SSE,168,2.0,6.0,85,0.00,,,0.00,156.000000,,2013-04-22 02:51:00,
2013-04-21 20:22:00,60.0,59.0,29.94,South,191,3.0,5.0,98,0.00,,,0.00,7.000000,,2013-04-22 03:22:00,
2013-04-21 20:33:00,60.0,59.0,29.94,South,191,3.0,5.0,98,0.00,,,0.00,7.000000,,2013-04-22 03:33:00,
2013-04-21 20:42:00,60.0,59.0,29.94,South,191,3.0,5.0,98,0.00,,,0.00,7.000000,,2013-04-22 03:42:00,
2013-04-21 20:52:00,60.0,59.0,29.94,South,191,3.0,5.0,98,0.00,,,0.00,7.000000,,2013-04-22 03:52:00,
2013-04-21 21:23:00,59.0,59.0,29.96,SE,127,4.0,7.0,100,0.00,,,-99.99,0.000000,,2013-04-22 04:23:00,
2013-04-21 21:32:00,59.0,59.0,29.96,SE,127,4.0,7.0,100,0.00,,,-99.99,0.000000,,2013-04-22 04:32:00,
2013-04-21 21:43:00,59.0,59.0,29.96,SE,127,4.0,7.0,100,0.00,,,-99.99,0.000000,,2013-04-22 04:43:00,
2013-04-21 21:52:00,59.0,59.0,29.96,SE,127,4.0,7.0,100,0.00,,,-99.99,0.000000,,2013-04-22 04:52:00,
2013-04-21 22:22:00,60.0,60.0,29.98,ESE,116,4.0,6.0,100,0.00,,,0.00,0.000000,,2013-04-22 05:22:00,
2013-04-21 22:32:00,60.0,60.0,29.98,ESE,116,4.0,6.0,100,0.00,,,0.00,0.000000,,2013-04-22 05:32:00,
2013-04-21 22:42:00,60.0,60.0,29.98,ESE,116,4.0,6.0,100,0.00,,,0.00,0.000000,,2013-04-22 05:42:00,
2013-04-21 22:52:00,60.0,60.0,29.98,ESE,116,4.0,6.0,100,0.00,,,0.00,0.000000,,2013-04-22 05:52:00,
2013-04-21 23:21:00,58.0,58.0,29.98,East,101,5.0,9.0,100,0.00,,,0.00,0.000000,,2013-04-22 06:21:00,
2013-04-21 23:32:00,58.0,58.0,29.98,East,101,5.0,9.0,100,0.00,,,0.00,0.000000,,2013-04-22 06:32:00,
2013-04-21 23:42:00,58.0,58.0,29.98,East,101,5.0,9.0,100,0.00,,,0.00,0.000000,,2013-04-22 06:42:00,
2013-04-21 23:51:00,58.0,58.0,29.98,East,101,5.0,9.0,100,0.00,,,0.00,0.000000,,2013-04-22 06:51:00,